Location: LewisvilleTX
(33.0462°N, 96.9942°W)
Time: 02:11:23
(UTC+00:00)

X-37B - Pass Details

Date: 27 November 2022
Orbit: 277 x 277 km, 45.0° (Epoch: 01 November)

Event Time Altitude Azimuth Distance (km) Brightness Sun altitude
Exits shadow 11:57:47 21° 213° (SSW) 699 1.7 -14.9°
Drops below altitude 10° 11:59:31 10° 168° (SSE) 1,089 3.2 -14.6°
Sets 12:01:40 0° 150° (SSE) 1,897 4.8 -14.2°
